User: anonymous   Login
Location: Lafig�re
(44.4503°N, 4.0357°E)
Time: 21:44:50
(UTC+00:00)
Language:

Tiros 1 - Orbit

View from above orbital plane
View from above orbital plane
View from above satellite
View from above satellite

Ground track
Ground track

The orbit data is extracted from the following two-line orbital elements,

1 00029U 60002B   21018.70598363 -.00000124  00000-0  12581-4 0  9991
2 00029  48.3807  12.7460 0023411  72.8570 287.4903 14.74398578250302
Epoch (UTC): 18 January 2021 16:56:36
Eccentricity: 0.0023411
inclination: 48.3807°
perigee height: 630 km
apogee height: 663 km
right ascension of ascending node: 12.7460°
argument of perigee: 72.8570°
revolutions per day: 14.74398578
mean anomaly at epoch: 287.4903°
orbit number at epoch: 25030

The dashed part of the orbit path shows where the satellite is in the earth's shadow,  

DLR